BEIDOU-3 M11

Last updated on May 15, 2019, 3:07 a.m. UTC

1 43602U 18067A   19134.73747194 -.00000055  00000-0  00000+0 0  9997
2 43602  54.8623 269.3871 0005241 351.1040  62.6915  1.86231700  4884
UTC
Height (km)
Latitude
Longitude
Inclination
Orbital Period
UTC large
Height (km)
Speed (km/s)
/
Latitude / Longitude
Inclination (degrees)
Orbital Period (minutes)
Azimuth
Elevation
Range (km)
Doppler Factor
iOS Compass Heading
iOS Angle

Next 30 passes for location: Hong Kong

Rise time Rise Azimuth (degrees) Set time Set Azimuth (degrees) Duration Max altitude (degrees)

No matching passes for this satellites